This demonstration page uses our WeatherBlox Daily Observations layout. Learn more.

Left ArrowRight Arrow

Hourly Observations for July 14, 2022

Temp ( °F °C ) Dew Point ( °F °C ) Humidity (%) Winds ( mph kmh ) Pressure ( in mb ) Visibility ( mi km ) Precip ( " mm )
12:15 am 00:15 Cloudy 73 23 70 21 89 89 W 3 6 29.95 1014 10 16 0.00 0.00
12:35 am 00:35 Mostly Cloudy 72 22 70 21 94 94 Calm 29.95 1014 10 16 0.00 0.00
12:55 am 00:55 Partly Cloudy 72 22 70 21 94 94 Calm 29.95 1014 10 16 0.00 0.00
1:15 am 01:15 Mostly Cloudy 72 22 70 21 94 94 WSW 3 6 29.95 1014 10 16 0.00 0.00
1:35 am 01:35 Cloudy 72 22 68 20 88 88 Calm 29.95 1014 10 16 0.00 0.00
1:55 am 01:55 Mostly Cloudy 70 21 68 20 94 94 W 5 7 29.95 1014 10 16 0.00 0.00
2:15 am 02:15 Mostly Cloudy 70 21 68 20 94 94 WNW 5 7 29.95 1014 10 16 0.00 0.00
2:35 am 02:35 Partly Cloudy 70 21 66 19 88 88 WNW 5 7 29.95 1014 10 16 0.00 0.00
2:55 am 02:55 undefined 70 21 64 18 83 83 W 3 6 29.95 1014 N/A 0.00 0.00
3:15 am 03:15 undefined 70 21 64 18 83 83 W 6 9 29.95 1014 N/A 0.00 0.00
3:35 am 03:35 undefined 70 21 64 18 83 83 WNW 6 9 29.96 1015 N/A 0.00 0.00
3:55 am 03:55 Clear 68 20 63 17 83 83 NW 3 6 29.96 1015 N/A 0.00 0.00
4:15 am 04:15 Clear 70 21 63 17 78 78 Calm 29.96 1015 10 16 0.00 0.00
4:35 am 04:35 Clear 70 21 63 17 78 78 Calm 29.96 1015 10 16 0.00 0.00
4:55 am 04:55 Clear 68 20 63 17 83 83 Calm 29.96 1015 N/A 0.00 0.00
5:15 am 05:15 Clear 68 20 63 17 83 83 NW 3 6 29.96 1015 N/A 0.00 0.00
5:35 am 05:35 Clear 68 20 63 17 83 83 NW 5 7 29.97 1015 N/A 0.00 0.00
5:55 am 05:55 Clear 68 20 61 16 78 78 NW 5 7 29.97 1015 N/A 0.00 0.00
6:15 am 06:15 Sunny 70 21 63 17 78 78 NW 5 7 29.99 1016 N/A 0.00 0.00
6:35 am 06:35 Sunny 70 21 61 16 73 73 NNW 3 6 29.99 1016 N/A 0.00 0.00
6:55 am 06:55 Sunny 72 22 61 16 69 69 Calm 30.00 1016 N/A 0.00 0.00
7:15 am 07:15 Sunny 73 23 63 17 69 69 Calm 30.01 1016 N/A 0.00 0.00
7:35 am 07:35 Sunny 73 23 64 18 74 74 NW 5 7 30.01 1016 N/A 0.00 0.00
7:55 am 07:55 Sunny 75 24 64 18 69 69 NW 5 7 30.02 1016 N/A 0.00 0.00
8:15 am 08:15 Sunny 77 25 64 18 65 65 NNW 7 11 30.01 1016 N/A 0.00 0.00
8:35 am 08:35 Sunny 77 25 64 18 65 65 NNW 5 7 30.02 1017 N/A 0.00 0.00
8:55 am 08:55 Sunny 79 26 64 18 61 61 NNW 6 9 30.02 1017 N/A 0.00 0.00
9:15 am 09:15 Sunny 79 26 64 18 61 61 NW 3 6 30.03 1017 N/A 0.00 0.00
9:35 am 09:35 Sunny 81 27 64 18 58 58 NNW 8 13 30.03 1017 N/A 0.00 0.00
9:55 am 09:55 Sunny 81 27 66 19 62 62 NW 7 11 30.03 1017 N/A 0.00 0.00
10:15 am 10:15 Sunny 81 27 66 19 62 62 NNW 6 9 30.03 1017 N/A 0.00 0.00
10:35 am 10:35 Sunny 81 27 64 18 58 58 NNW 7 11 30.04 1017 N/A 0.00 0.00
10:55 am 10:55 Sunny 81 27 66 19 62 62 N 9 15 30.04 1017 N/A 0.00 0.00
11:15 am 11:15 Sunny 82 28 66 19 58 58 NNW 13 20 30.05 1018 N/A 0.00 0.00
11:35 am 11:35 Sunny 82 28 66 19 58 58 NW 9 15 30.05 1018 N/A 0.00 0.00
11:55 am 11:55 Sunny 82 28 66 19 58 58 N 9 15 30.05 1018 N/A 0.00 0.00
12:15 pm 12:15 Partly Cloudy 82 28 68 20 62 62 NW 7 11 30.05 1018 N/A 0.00 0.00
12:35 pm 12:35 Mostly Cloudy 84 29 68 20 58 58 WNW 6 9 30.05 1018 N/A 0.00 0.00
12:55 pm 12:55 Partly Cloudy 84 29 68 20 58 58 NNW 5 7 30.05 1018 10 16 0.00 0.00
1:15 pm 13:15 Partly Cloudy 84 29 68 20 58 58 WNW 8 13 30.05 1018 10 16 0.00 0.00
1:35 pm 13:35 Mostly Cloudy 82 28 68 20 62 62 W 7 11 30.06 1018 10 16 0.00 0.00
1:55 pm 13:55 Partly Cloudy 84 29 68 20 58 58 WNW 5 7 30.05 1018 10 16 0.00 0.00
2:15 pm 14:15 Sunny 86 30 68 20 55 55 N 9 15 30.05 1018 10 16 0.00 0.00
2:35 pm 14:35 Sunny 86 30 66 19 52 52 N 6 9 30.04 1017 10 16 0.00 0.00
2:55 pm 14:55 Partly Cloudy 86 30 68 20 55 55 NNW 5 7 30.04 1017 10 16 0.00 0.00
3:15 pm 15:15 Mostly Cloudy 84 29 68 20 58 58 NNW 5 7 30.04 1017 10 16 0.00 0.00
3:35 pm 15:35 Partly Cloudy 86 30 68 20 55 55 NNW 5 7 30.04 1017 10 16 0.00 0.00
3:55 pm 15:55 Sunny 86 30 66 19 52 52 N 3 6 30.03 1017 10 16 0.00 0.00
4:15 pm 16:15 Partly Cloudy 86 30 66 19 52 52 W 5 7 30.03 1017 10 16 0.00 0.00
4:35 pm 16:35 Partly Cloudy 86 30 68 20 55 55 W 3 6 30.03 1017 10 16 0.00 0.00
4:55 pm 16:55 Partly Cloudy 86 30 66 19 52 52 NNE 3 6 30.02 1017 10 16 0.00 0.00
5:15 pm 17:15 Partly Cloudy 84 29 64 18 51 51 NNW 3 6 30.03 1017 10 16 0.00 0.00
5:35 pm 17:35 Mostly Cloudy 84 29 64 18 51 51 Calm 30.02 1017 10 16 0.00 0.00
5:55 pm 17:55 Partly Cloudy 82 28 64 18 55 55 N 5 7 30.02 1017 10 16 0.00 0.00
6:15 pm 18:15 Partly Cloudy 84 29 63 17 48 48 ENE 3 6 30.02 1017 10 16 0.00 0.00
6:35 pm 18:35 Mostly Cloudy 84 29 64 18 51 51 Calm 30.03 1017 10 16 0.00 0.00
6:55 pm 18:55 Cloudy with Light Rain 75 24 70 21 83 83 N 3 6 30.04 1017 7 11 0.02 0.51
7:15 pm 19:15 Partly Cloudy 77 25 73 23 89 89 Calm 30.03 1017 10 16 0.00 0.00
7:35 pm 19:35 Sunny 77 25 72 22 83 83 NNW 7 11 30.04 1017 10 16 0.00 0.00
7:55 pm 19:55 Sunny 77 25 72 22 83 83 NW 6 9 30.04 1017 10 16 0.00 0.00
8:15 pm 20:15 Partly Cloudy 77 25 72 22 83 83 Calm 30.05 1018 10 16 0.00 0.00
8:35 pm 20:35 Mostly Cloudy 75 24 72 22 89 89 W 3 6 30.06 1018 10 16 0.00 0.00
8:55 pm 20:55 Partly Cloudy 75 24 70 21 83 83 Calm 30.06 1018 10 16 0.00 0.00
9:15 pm 21:15 Clear 73 23 72 22 94 94 Calm 30.07 1018 10 16 0.00 0.00
9:35 pm 21:35 Clear 73 23 70 21 89 89 NNW 3 6 30.07 1018 10 16 0.00 0.00
9:55 pm 21:55 Clear 73 23 70 21 89 89 Calm 30.08 1019 10 16 0.00 0.00
10:15 pm 22:15 Clear 72 22 70 21 94 94 Calm 30.09 1019 10 16 0.00 0.00
10:35 pm 22:35 Clear 72 22 70 21 94 94 W 3 6 30.10 1019 10 16 0.00 0.00
10:55 pm 22:55 Clear 72 22 70 21 94 94 Calm 30.10 1019 10 16 0.00 0.00
11:15 pm 23:15 Clear 70 21 68 20 94 94 Calm 30.10 1019 10 16 0.00 0.00
11:35 pm 23:35 Clear 70 21 68 20 94 94 Calm 30.11 1020 10 16 0.00 0.00
11:55 pm 23:55 Clear 70 21 68 20 94 94 Calm 30.11 1020 10 16 0.00 0.00

Powered by AerisWeather